Date String (YYYY-MM-DD hh:mm:ss) UTC,Instrument flags,Ambient pressure (hPa),Sample flow (lpm),Bypass flow (lpm),Sample temperature (°C),Ambient temperature (°C),ASC tube jacket temperature (°C),LED temperature (°C),Box temperature (°C),Sample RH (%),Span deviation,Mass concentration (μg/m³),Mass concentration (μg/m³),Mass concentration (μg/m³)
DateTimeUTC,F1_M11,P_M11,Q1_M11,Q2_M11,T1_M11,T2_M11,T3_M11,T4_M11,T5_M11,U1_M11,ZSPAN_M11,X0_M11,X2_M11,X1_M11
2022-05-19 20:00:00,,0810.8,5.00,0.00,29.3,27.9,00.0,38.1,31.2,10.1,0000.0,0011.42,0003.55,0001.90
2022-05-19 20:01:00,,0810.8,5.00,0.00,29.3,28.1,00.0,38.1,31.2,10.3,0000.0,0010.77,0003.54,0001.91
2022-05-19 20:02:00,,0810.6,4.99,0.00,29.3,28.2,00.0,38.1,31.3,09.8,0000.0,0011.17,0003.54,0001.95
2022-05-19 20:03:00,,0810.6,5.00,0.00,29.4,28.3,00.0,38.1,31.3,09.9,0000.0,0010.95,0003.57,0001.96
2022-05-19 20:04:00,,0810.7,5.00,0.00,29.4,28.4,00.0,38.2,31.3,09.5,0000.0,0010.68,0003.56,0001.96
2022-05-19 20:05:00,,0810.8,5.01,0.00,29.4,28.5,00.0,38.2,31.4,09.3,0000.0,0010.76,0003.56,0001.96
2022-05-19 20:06:00,,0810.6,5.01,0.00,29.5,28.3,00.0,38.2,31.3,09.8,0000.0,0010.57,0003.54,0001.96
2022-05-19 20:07:00,,0810.7,5.00,0.00,29.4,27.4,00.0,38.1,31.1,10.1,0000.0,0010.81,0003.61,0001.97
2022-05-19 20:08:00,,0810.7,4.99,0.00,29.3,27.0,00.0,38.1,31.0,10.1,0000.0,0010.82,0003.63,0001.98
2022-05-19 20:09:00,,0810.8,5.01,0.00,29.3,27.0,00.0,38.1,31.0,10.2,0000.0,0010.55,0003.65,0001.98
2022-05-19 20:10:00,,0810.9,4.99,0.00,29.2,27.2,00.0,38.1,31.0,09.7,0000.0,0010.60,0003.66,0001.96
2022-05-19 20:11:00,,0810.9,5.01,0.00,29.2,27.3,00.0,38.1,31.0,09.6,0000.0,0010.15,0003.63,0001.97
2022-05-19 20:12:00,,0810.8,5.00,0.00,29.2,27.5,00.0,38.1,31.1,09.9,0000.0,0009.78,0003.60,0001.97
2022-05-19 20:13:00,,0810.8,4.98,0.00,29.2,27.7,00.0,38.1,31.1,10.3,0000.0,0009.46,0003.59,0001.97
2022-05-19 20:14:00,,0810.7,5.00,0.00,29.3,27.9,00.0,38.1,31.2,10.0,0000.0,0009.28,0003.58,0001.98
2022-05-19 20:15:00,,0810.7,4.99,0.00,29.3,28.1,00.0,38.1,31.2,09.9,0000.0,0009.11,0003.55,0002.01
2022-05-19 20:16:00,,0810.8,5.01,0.00,29.3,28.2,00.0,38.1,31.3,09.7,0000.0,0009.05,0003.56,0002.01
2022-05-19 20:17:00,,0810.9,4.99,0.00,29.3,28.3,00.0,38.1,31.3,09.5,0000.0,0009.61,0003.55,0002.03
2022-05-19 20:18:00,,0810.9,5.01,0.00,29.4,28.4,00.0,38.2,31.3,09.7,0000.0,0009.26,0003.49,0002.05
2022-05-19 20:19:00,,0810.9,4.99,0.00,29.4,28.5,00.0,38.2,31.4,09.6,0000.0,0009.04,0003.47,0002.05
2022-05-19 20:20:00,,0810.8,5.00,0.00,29.5,28.5,00.0,38.2,31.4,09.4,0000.0,0009.18,0003.49,0002.04
2022-05-19 20:21:00,,0810.7,5.00,0.00,29.4,27.8,00.0,38.2,31.2,09.5,0000.0,0009.05,0003.53,0002.06
2022-05-19 20:22:00,,0810.7,4.99,0.00,29.3,27.0,00.0,38.1,31.0,09.6,0000.0,0009.01,0003.56,0002.07
2022-05-19 20:23:00,,0810.7,5.00,0.00,29.3,26.9,00.0,38.1,30.9,09.6,0000.0,0009.21,0003.55,0002.07
2022-05-19 20:24:00,,0810.9,5.01,0.00,29.2,27.0,00.0,38.1,30.9,09.8,0000.0,0009.85,0003.57,0002.08
2022-05-19 20:25:00,,0810.8,5.00,0.00,29.2,27.2,00.0,38.1,31.0,10.1,0000.0,0011.16,0003.59,0002.07
2022-05-19 20:26:00,,0810.7,4.99,0.00,29.2,27.4,00.0,38.1,31.0,10.1,0000.0,0011.66,0003.64,0002.07
2022-05-19 20:27:00,,0810.7,5.00,0.00,29.2,27.6,00.0,38.1,31.1,09.9,0000.0,0011.77,0003.65,0002.08
2022-05-19 20:28:00,,0810.6,5.00,0.00,29.2,27.8,00.0,38.1,31.1,10.1,0000.0,0011.20,0003.61,0002.06
2022-05-19 20:29:00,,0810.6,5.00,0.00,29.3,27.9,00.0,38.1,31.2,09.9,0000.0,0011.17,0003.61,0002.05
2022-05-19 20:30:00,,0810.8,5.00,0.00,29.3,28.1,00.0,38.1,31.2,09.9,0000.0,0011.23,0003.66,0002.08
2022-05-19 20:31:00,,0810.8,5.00,0.00,29.3,28.2,00.0,38.1,31.3,09.7,0000.0,0011.04,0003.60,0002.07
2022-05-19 20:32:00,,0810.8,4.99,0.00,29.4,28.3,00.0,38.1,31.3,09.7,0000.0,0010.97,0003.56,0002.08
2022-05-19 20:33:00,,0810.8,5.00,0.00,29.4,28.5,00.0,38.2,31.4,09.7,0000.0,0011.22,0003.59,0002.09
2022-05-19 20:34:00,,0810.8,5.00,0.00,29.4,28.5,00.0,38.2,31.4,09.8,0000.0,0011.92,0003.63,0002.09
2022-05-19 20:35:00,,0810.6,5.01,0.00,29.4,28.2,00.0,38.2,31.3,09.9,0000.0,0011.39,0003.59,0002.08
2022-05-19 20:36:00,,0810.7,5.00,0.00,29.4,27.3,00.0,38.1,31.0,09.8,0000.0,0010.38,0003.58,0002.09
2022-05-19 20:37:00,,0810.7,4.99,0.00,29.3,27.0,00.0,38.1,31.0,10.3,0000.0,0010.10,0003.58,0002.08
2022-05-19 20:38:00,,0810.6,5.00,0.00,29.2,27.0,00.0,38.1,30.9,10.2,0000.0,0010.12,0003.59,0002.08
2022-05-19 20:39:00,,0810.6,4.99,0.00,29.2,27.2,00.0,38.1,31.0,10.0,0000.0,0010.31,0003.64,0002.10
2022-05-19 20:40:00,,0810.7,5.00,0.00,29.2,27.3,00.0,38.1,31.0,09.7,0000.0,0010.57,0003.66,0002.10
2022-05-19 20:41:00,,0810.6,5.01,0.00,29.2,27.5,00.0,38.1,31.0,09.8,0000.0,0010.66,0003.69,0002.08
2022-05-19 20:42:00,,0810.6,5.00,0.00,29.2,27.7,00.0,38.1,31.1,10.2,0000.0,0010.97,0003.74,0002.09
2022-05-19 20:43:00,,0810.6,4.99,0.00,29.2,27.9,00.0,38.1,31.1,10.3,0000.0,0011.42,0003.73,0002.10
2022-05-19 20:44:00,,0810.5,5.01,0.00,29.3,28.0,00.0,38.1,31.2,10.0,0000.0,0011.13,0003.70,0002.09
2022-05-19 20:45:00,,0810.4,5.00,0.00,29.3,28.2,00.0,38.1,31.2,09.7,0000.0,0010.28,0003.69,0002.10
2022-05-19 20:46:00,,0810.6,5.00,0.00,29.3,28.3,00.0,38.1,31.3,09.6,0000.0,0010.32,0003.73,0002.12
2022-05-19 20:47:00,,0810.6,5.01,0.00,29.4,28.4,00.0,38.1,31.3,10.0,0000.0,0010.81,0003.79,0002.13
2022-05-19 20:48:00,,0810.5,5.01,0.00,29.4,28.5,00.0,38.2,31.4,10.0,0000.0,0010.99,0003.76,0002.13
2022-05-19 20:49:00,,0810.3,4.99,0.00,29.4,28.4,00.0,38.2,31.4,09.9,0000.0,0010.87,0003.73,0002.13
2022-05-19 20:50:00,,0810.3,5.00,0.00,29.4,27.6,00.0,38.1,31.1,09.6,0000.0,0010.69,0003.70,0002.13
2022-05-19 20:51:00,,0810.3,5.01,0.00,29.3,27.0,00.0,38.1,31.0,09.7,0000.0,0011.31,0003.70,0002.12
2022-05-19 20:52:00,,0810.4,4.99,0.00,29.3,26.9,00.0,38.0,30.9,09.7,0000.0,0011.48,0003.69,0002.12
2022-05-19 20:53:00,,0810.3,5.01,0.00,29.2,27.0,00.0,38.0,30.9,09.7,0000.0,0011.91,0003.68,0002.13
2022-05-19 20:54:00,,0810.4,5.00,0.00,29.2,27.2,00.0,38.0,30.9,09.9,0000.0,0011.80,0003.72,0002.13
2022-05-19 20:55:00,,0810.4,5.01,0.00,29.2,27.4,00.0,38.0,31.0,09.9,0000.0,0011.81,0003.76,0002.12
2022-05-19 20:56:00,,0810.3,5.01,0.00,29.2,27.6,00.0,38.0,31.0,09.9,0000.0,0012.24,0003.77,0002.10
2022-05-19 20:57:00,,0810.3,5.00,0.00,29.2,27.8,00.0,38.1,31.1,10.1,0000.0,0012.25,0003.77,0002.09
2022-05-19 20:58:00,,0810.4,5.00,0.00,29.2,27.9,00.0,38.1,31.1,10.5,0000.0,0011.63,0003.73,0002.07
2022-05-19 20:59:00,,0810.4,5.00,0.00,29.3,28.1,00.0,38.1,31.2,10.1,0000.0,0011.51,0003.71,0002.07
